DW9727 Weather Reports


time (UTC)temp
F
wind
direction
speed
knots
gust
knots
rain 1hr
in
rain 24hr
in
rain mn
in
humidity
%
barometer
mb
20260903090711 80 169 8.7 20.0 0.00 0.06 0.00 63 1005.5
20260903085710 80 224 7.8 17.4 0.00 0.06 0.00 63 1005.6
20260903084710 80 199 8.7 17.4 0.00 0.06 0.00 63 1005.7
20260903082710 80 155 10.4 17.4 0.00 0.06 0.00 63 1005.9
20260903081711 80 202 8.7 15.6 0.00 0.06 0.00 63 1005.8
20260903080711 80 192 8.7 17.4 0.00 0.06 0.00 63 1005.9
20260903075711 80 164 7.8 14.8 0.00 0.06 0.00 63 1006.0
20260903074711 80 200 8.7 17.4 0.00 0.06 0.00 63 1006.0
20260903073710 80 163 8.7 14.8 0.00 0.06 0.00 63 1006.2
20260903072711 80 176 7.8 13.0 0.00 0.06 0.00 63 1006.1
20260903071710 80 187 8.7 13.9 0.00 0.06 0.00 63 1006.1
20260903070711 81 192 7.8 13.0 0.00 0.06 0.00 62 1006.3
20260903065710 81 177 8.7 14.8 0.00 0.06 0.00 62 1006.1
20260903064711 81 202 10.4 15.6 0.00 0.06 0.00 62 1006.2
20260903063711 81 188 8.7 13.9 0.00 0.06 0.00 62 1006.3
20260903062711 81 171 7.8 17.4 0.00 0.06 0.00 62 1006.2
20260903061710 81 197 9.6 17.4 0.00 0.06 0.00 61 1006.3
20260903060710 81 172 8.7 13.0 0.00 0.06 0.00 61 1006.2
20260903052711 82 175 10.4 17.4 0.00 0.06 0.00 60 1006.3
20260903051711 83 190 8.7 18.2 0.00 0.06 0.00 59 1006.2
20260903050711 83 168 9.6 15.6 0.00 0.06 0.00 59 1006.2
20260903045711 83 169 8.7 17.4 0.00 0.06 0.06 59 1006.2
20260903044711 83 177 9.6 17.4 0.00 0.06 0.06 59 1006.0
20260903043711 83 176 8.7 17.4 0.00 0.06 0.06 59 1006.2
20260903042710 84 148 10.4 18.2 0.00 0.06 0.06 58 1006.2
20260903040710 84 174 11.3 20.9 0.00 0.06 0.06 57 1006.2
20260903035710 85 196 10.4 18.2 0.00 0.06 0.06 56 1006.0
20260903034711 85 196 11.3 20.9 0.00 0.06 0.06 56 1006.1
20260903033710 85 171 11.3 19.1 0.00 0.06 0.06 56 1006.1
20260903031711 85 184 12.2 19.1 0.00 0.06 0.06 56 1006.1
20260903030710 85 169 11.3 21.7 0.00 0.06 0.06 56 1006.0
20260903025710 85 180 11.3 17.4 0.00 0.06 0.06 57 1005.9
20260903023711 85 159 8.7 15.6 0.00 0.06 0.06 58 1005.8
20260903022711 85 168 8.7 13.0 0.00 0.06 0.06 59 1005.8
20260903021711 85 184 7.8 12.2 0.00 0.06 0.06 60 1005.7
20260903020711 86 175 6.1 11.3 0.00 0.06 0.06 60 1005.6
20260903015711 86 166 7.8 11.3 0.00 0.06 0.06 60 1005.6
20260903013711 87 159 6.1 11.3 0.00 0.06 0.06 62 1005.3
20260903012712 87 158 6.1 10.4 0.00 0.06 0.06 63 1005.5
20260903011711 88 163 5.2 10.4 0.00 0.06 0.06 63 1005.4
20260903010710 89 113 4.3 8.7 0.00 0.06 0.06 64 1005.3
20260903005711 89 121 2.6 7.0 0.00 0.06 0.06 64 1005.4
20260903004710 90 119 3.5 7.8 0.00 0.06 0.06 62 1005.3
20260903003711 90 130 4.3 8.7 0.00 0.06 0.06 61 1005.3
20260903002711 91 133 5.2 7.8 0.00 0.06 0.06 60 1005.3
20260903001711 91 117 4.3 7.0 0.00 0.06 0.06 58 1005.2
20260903000710 91 115 3.5 7.0 0.00 0.06 0.06 57 1005.3
20260902235710 92 148 5.2 7.8 0.00 0.06 0.06 56 1005.5
20260902234710 92 101 3.5 7.8 0.00 0.06 0.06 57 1005.6
20260902233711 92 155 3.5 6.1 0.00 0.06 0.06 56 1005.6
20260902232711 92 139 2.6 5.2 0.00 0.06 0.06 56 1005.6
20260902231710 92 161 3.5 6.1 0.00 0.06 0.06 56 1005.8
20260902230710 92 157 2.6 4.3 0.00 0.06 0.06 56 1005.9
20260902225710 92 166 2.6 4.3 0.00 0.06 0.06 55 1005.9
20260902224710 93 175 1.7 6.1 0.00 0.06 0.06 55 1006.1
20260902223711 93 176 4.3 7.0 0.00 0.06 0.06 55 1006.2
20260902222711 93 150 4.3 10.4 0.00 0.06 0.06 54 1006.3
20260902221711 93 178 3.5 8.7 0.00 0.06 0.06 54 1006.5
20260902220711 93 166 5.2 7.8 0.00 0.06 0.06 54 1006.5
20260902195710 93 163 7.8 14.8 0.00 0.06 0.06 55 1007.7
20260902193710 92 215 7.0 13.9 0.00 0.06 0.06 53 1007.6
20260902191710 92 187 4.3 10.4 0.00 0.06 0.06 56 1007.6
20260902190712 91 214 8.7 10.4 0.00 0.06 0.06 54 1007.7
20260902175711 90 182 8.7 12.2 0.00 0.06 0.06 56 1008.2
20260902174711 90 202 6.1 12.2 0.00 0.06 0.06 57 1008.3
20260902171710 88 204 7.0 12.2 0.00 0.06 0.06 59 1008.3
20260902170710 87 184 8.7 12.2 0.00 0.06 0.06 59 1008.2
20260902165710 86 221 4.3 7.8 0.00 0.06 0.06 62 1008.4
20260902164710 86 205 5.2 7.8 0.00 0.06 0.06 62 1008.3
20260902162710 86 204 4.3 10.4 0.00 0.06 0.06 63 1008.3
20260902161710 85 210 6.1 11.3 0.00 0.06 0.06 63 1008.2
20260902160711 84 192 5.2 10.4 0.00 0.06 0.06 66 1008.3
20260902154710 82 200 5.2 10.4 0.00 0.06 0.06 68 1008.3
20260902152710 79 195 7.0 11.3 0.00 0.06 0.06 71 1008.3
20260902151710 77 224 4.3 6.1 0.00 0.06 0.06 75 1008.3
20260902145711 76 182 2.6 7.0 0.00 0.06 0.06 75 1008.5
20260902144711 75 182 2.6 5.2 0.00 0.06 0.06 76 1008.5
20260902143711 75 224 2.6 5.2 0.00 0.06 0.06 76 1008.5
20260902142710 75 188 1.7 6.1 0.00 0.06 0.06 76 1008.5
20260902140710 74 194 1.7 2.6 0.00 0.06 0.06 78 1008.6
20260902135711 73 213 1.7 2.6 0.00 0.06 0.06 78 1008.6
20260902134711 73 179 0.9 2.6 0.00 0.06 0.06 78 1008.5
20260902133711 73 192 1.7 4.3 0.00 0.06 0.06 77 1008.6
20260902132711 73 183 2.6 5.2 0.00 0.06 0.06 78 1008.6
20260902130710 72 192 3.5 6.1 0.00 0.06 0.06 78 1008.7
20260902125710 72 159 0.9 4.3 0.00 0.06 0.06 79 1008.7
20260902124710 72 163 1.7 6.1 0.00 0.06 0.06 79 1008.7
20260902123711 71 182 2.6 6.1 0.00 0.06 0.06 80 1008.6
20260902122710 71 173 4.3 7.0 0.00 0.06 0.06 80 1008.6
20260902121710 71 175 3.5 8.7 0.00 0.06 0.06 82 1008.6
20260902120711 70 184 4.3 7.8 0.00 0.06 0.06 84 1008.5
20260902115710 70 176 2.6 6.1 0.01 0.06 0.06 86 1008.5
20260902114711 70 148 0.9 1.7 0.06 0.06 0.06 86 1008.4
20260902113710 71 148 0.0 1.7 0.06 0.06 0.06 84 1008.3
20260902112710 71 146 0.0 2.6 0.06 0.06 0.06 83 1008.4
20260902111710 71 192 1.7 5.2 0.06 0.06 0.06 81 1008.5
20260902110711 72 185 4.3 5.2 0.06 0.06 0.06 79 1008.6
20260902105711 74 186 7.0 11.3 0.05 0.05 0.05 75 1008.7
20260902104711 75 220 7.0 13.9 0.00 0.00 0.00 69 1008.7
20260902103710 75 214 2.6 4.3 0.00 0.00 0.00 69 1008.7
20260902102711 75 224 1.7 4.3 0.00 0.00 0.00 67 1008.7
20260902101710 76 200 2.6 4.3 0.00 0.00 0.00 66 1008.5
20260902100711 76 213 2.6 4.3 0.00 0.00 0.00 66 1008.6
20260902094710 76 172 2.6 6.1 0.00 0.00 0.00 65 1008.6
20260902093711 76 185 1.7 2.6 0.00 0.00 0.00 65 1008.5
20260902091711 74 186 7.8 13.0 0.00 0.00 0.00 71 1008.5